Date String (YYYY-MM-DD hh:mm:ss) UTC,Instrument flags,Ambient pressure (hPa),Sample flow (lpm),Bypass flow (lpm),Sample temperature (°C),Ambient temperature (°C),ASC tube jacket temperature (°C),LED temperature (°C),Box temperature (°C),Sample RH (%),Span deviation,Mass concentration (μg/m³),Mass concentration (μg/m³),Mass concentration (μg/m³)
DateTimeUTC,F1_M11,P_M11,Q1_M11,Q2_M11,T1_M11,T2_M11,T3_M11,T4_M11,T5_M11,U1_M11,ZSPAN_M11,X0_M11,X2_M11,X1_M11
2023-05-30 05:00:00,,0829.7,5.00,0.00,29.9,28.5,00.0,38.1,31.5,20.7,0000.0,0009.94,0004.27,0003.38
2023-05-30 05:01:00,,0829.7,4.99,0.00,29.9,27.2,00.0,38.1,31.4,20.8,0000.0,0010.00,0004.28,0003.37
2023-05-30 05:02:00,,0829.7,5.00,0.00,29.8,25.6,00.0,38.0,31.1,21.1,0000.0,0009.92,0004.30,0003.37
2023-05-30 05:03:00,,0829.7,5.00,0.00,29.7,25.3,00.0,37.9,31.0,21.2,0000.0,0009.74,0004.29,0003.38
2023-05-30 05:04:00,,0829.7,5.01,0.00,29.6,25.5,00.0,37.9,30.8,21.5,0000.0,0009.73,0004.31,0003.38
2023-05-30 05:05:00,,0829.7,5.01,0.00,29.5,25.8,00.0,37.9,30.9,21.6,0000.0,0009.94,0004.30,0003.37
2023-05-30 05:06:00,,0829.7,4.99,0.00,29.5,26.2,00.0,37.9,30.9,21.7,0000.0,0010.39,0004.27,0003.37
2023-05-30 05:07:00,,0829.7,5.00,0.00,29.4,26.5,00.0,37.9,30.9,21.8,0000.0,0010.25,0004.26,0003.38
2023-05-30 05:08:00,,0829.7,5.01,0.00,29.4,26.8,00.0,37.9,31.0,21.7,0000.0,0010.80,0004.30,0003.38
2023-05-30 05:09:00,,0829.7,5.00,0.00,29.4,27.0,00.0,37.9,31.0,21.7,0000.0,0010.70,0004.33,0003.38
2023-05-30 05:10:00,,0829.7,5.00,0.00,29.4,27.3,00.0,37.8,31.0,21.7,0000.0,0010.35,0004.33,0003.40
2023-05-30 05:11:00,,0829.7,5.00,0.00,29.4,27.4,00.0,37.8,31.0,21.7,0000.0,0010.26,0004.30,0003.40
2023-05-30 05:12:00,,0829.7,4.99,0.00,29.4,27.6,00.0,37.8,31.1,21.6,0000.0,0010.11,0004.27,0003.39
2023-05-30 05:13:00,,0829.7,5.00,0.00,29.4,27.7,00.0,37.8,31.1,21.8,0000.0,0010.40,0004.26,0003.38
2023-05-30 05:14:00,,0829.8,5.00,0.00,29.5,27.8,00.0,37.8,31.1,21.7,0000.0,0010.54,0004.26,0003.38
2023-05-30 05:15:00,,0829.7,5.01,0.00,29.5,27.8,00.0,37.8,31.1,21.7,0000.0,0010.57,0004.25,0003.37
2023-05-30 05:16:00,,0829.8,5.00,0.00,29.5,27.9,00.0,37.8,31.1,21.8,0000.0,0010.33,0004.22,0003.37
2023-05-30 05:17:00,,0829.8,5.00,0.00,29.5,27.9,00.0,37.9,31.2,21.7,0000.0,0009.99,0004.22,0003.38
2023-05-30 05:18:00,,0829.8,5.00,0.00,29.5,28.0,00.0,37.9,31.2,21.5,0000.0,0010.06,0004.22,0003.38
2023-05-30 05:19:00,,0829.8,4.99,0.00,29.5,28.0,00.0,37.9,31.2,21.5,0000.0,0009.37,0004.16,0003.38
2023-05-30 05:20:00,,0829.9,5.00,0.00,29.6,28.1,00.0,37.9,31.2,21.3,0000.0,0009.28,0004.11,0003.37
2023-05-30 05:21:00,,0829.9,5.00,0.00,29.6,28.1,00.0,37.9,31.2,21.4,0000.0,0009.49,0004.13,0003.36
2023-05-30 05:22:00,,0829.9,5.00,0.00,29.6,28.1,00.0,37.9,31.2,21.3,0000.0,0009.62,0004.15,0003.35
2023-05-30 05:23:00,,0829.9,5.00,0.00,29.6,28.1,00.0,37.9,31.3,21.3,0000.0,0009.73,0004.20,0003.37
2023-05-30 05:24:00,,0829.9,5.00,0.00,29.6,28.2,00.0,37.9,31.3,21.2,0000.0,0009.83,0004.27,0003.40
2023-05-30 05:25:00,,0830.0,5.00,0.00,29.6,28.2,00.0,37.9,31.3,20.9,0000.0,0009.91,0004.33,0003.42
2023-05-30 05:26:00,,0830.0,5.00,0.00,29.7,28.2,00.0,37.9,31.3,20.8,0000.0,0010.00,0004.36,0003.43
2023-05-30 05:27:00,,0830.0,5.00,0.00,29.7,28.2,00.0,38.0,31.3,20.8,0000.0,0010.09,0004.37,0003.43
2023-05-30 05:28:00,,0830.0,5.00,0.00,29.7,28.2,00.0,38.0,31.3,20.8,0000.0,0010.08,0004.37,0003.43
2023-05-30 05:29:00,,0830.0,5.00,0.00,29.7,28.3,00.0,38.0,31.3,20.8,0000.0,0009.83,0004.39,0003.43
2023-05-30 05:30:00,,0830.0,5.00,0.00,29.7,28.3,00.0,38.0,31.4,20.8,0000.0,0009.60,0004.43,0003.43
2023-05-30 05:31:00,,0830.0,5.00,0.00,29.7,28.3,00.0,38.0,31.4,20.8,0000.0,0010.12,0004.48,0003.44
2023-05-30 05:32:00,,0830.0,5.00,0.00,29.7,28.3,00.0,38.0,31.4,20.9,0000.0,0010.26,0004.49,0003.45
2023-05-30 05:33:00,,0830.0,5.00,0.00,29.7,28.3,00.0,38.0,31.4,21.0,0000.0,0010.07,0004.45,0003.44
2023-05-30 05:34:00,,0830.0,5.00,0.00,29.8,28.3,00.0,38.1,31.4,21.4,0000.0,0009.90,0004.39,0003.44
2023-05-30 05:35:00,,0830.0,5.01,0.00,29.8,28.3,00.0,38.1,31.4,21.2,0000.0,0009.64,0004.33,0003.43
2023-05-30 05:36:00,,0830.0,5.00,0.00,29.8,28.3,00.0,38.1,31.4,21.1,0000.0,0009.57,0004.31,0003.42
2023-05-30 05:37:00,,0830.0,5.00,0.00,29.8,28.3,00.0,38.1,31.4,21.0,0000.0,0009.29,0004.26,0003.41
2023-05-30 05:38:00,,0830.0,5.00,0.00,29.8,28.4,00.0,38.1,31.5,21.1,0000.0,0008.84,0004.24,0003.41
2023-05-30 05:39:00,,0830.0,5.00,0.00,29.8,28.4,00.0,38.1,31.5,21.3,0000.0,0008.79,0004.24,0003.42
2023-05-30 05:40:00,,0830.0,4.99,0.00,29.8,28.4,00.0,38.1,31.5,21.4,0000.0,0009.22,0004.21,0003.42
2023-05-30 05:41:00,,0830.0,5.00,0.00,29.9,28.4,00.0,38.1,31.5,21.6,0000.0,0009.52,0004.19,0003.41
2023-05-30 05:42:00,,0830.0,5.01,0.00,29.9,28.4,00.0,38.2,31.5,21.6,0000.0,0010.47,0004.21,0003.42
2023-05-30 05:43:00,,0830.0,5.00,0.00,29.9,28.4,00.0,38.2,31.5,21.8,0000.0,0010.28,0004.19,0003.43
2023-05-30 05:44:00,,0830.1,4.99,0.00,29.9,28.5,00.0,38.2,31.6,22.1,0000.0,0010.23,0004.20,0003.43
2023-05-30 05:45:00,,0830.1,4.99,0.00,29.9,28.5,00.0,38.2,31.6,22.1,0000.0,0010.46,0004.23,0003.44
2023-05-30 05:46:00,,0830.1,5.00,0.00,29.9,28.5,00.0,38.2,31.6,21.9,0000.0,0011.02,0004.25,0003.45
2023-05-30 05:47:00,,0830.1,4.99,0.00,30.0,28.5,00.0,38.2,31.6,21.7,0000.0,0010.90,0004.24,0003.45
2023-05-30 05:48:00,,0830.1,5.01,0.00,30.0,28.5,00.0,38.2,31.6,22.0,0000.0,0010.87,0004.23,0003.45
2023-05-30 05:49:00,,0830.2,5.00,0.00,30.0,28.5,00.0,38.3,31.6,22.3,0000.0,0011.05,0004.24,0003.46
2023-05-30 05:50:00,,0830.2,4.99,0.00,30.0,27.4,00.0,38.2,31.5,22.3,0000.0,0011.24,0004.24,0003.47
2023-05-30 05:51:00,,0830.1,5.01,0.00,29.9,25.7,00.0,38.1,31.2,22.5,0000.0,0011.09,0004.26,0003.47
2023-05-30 05:52:00,,0830.1,5.00,0.00,29.8,25.3,00.0,38.0,31.1,22.6,0000.0,0010.62,0004.29,0003.48
2023-05-30 05:53:00,,0830.1,5.01,0.00,29.7,25.4,00.0,38.0,30.9,22.6,0000.0,0009.59,0004.31,0003.48
2023-05-30 05:54:00,,0830.1,4.99,0.00,29.6,25.8,00.0,38.0,30.9,22.5,0000.0,0009.43,0004.33,0003.50
2023-05-30 05:55:00,,0830.1,5.00,0.00,29.5,26.1,00.0,38.0,31.0,22.6,0000.0,0009.44,0004.32,0003.49
2023-05-30 05:56:00,,0830.1,5.00,0.00,29.5,26.5,00.0,38.0,31.0,22.7,0000.0,0009.79,0004.34,0003.50
2023-05-30 05:57:00,,0830.1,4.99,0.00,29.5,26.8,00.0,38.0,31.0,22.9,0000.0,0009.60,0004.36,0003.51
2023-05-30 05:58:00,,0830.1,5.01,0.00,29.5,27.1,00.0,37.9,31.1,22.8,0000.0,0009.71,0004.40,0003.50
2023-05-30 05:59:00,,0830.2,5.00,0.00,29.5,27.3,00.0,37.9,31.1,22.9,0000.0,0010.84,0004.42,0003.51
